Location: Unspecified
(0.0000°N, 0.0000°E)
Time: 12:02:43
(UTC+00:00)

Vela 3A - Visible Passes

Search period start: 07 February 2026 00:00
Search period end: 17 February 2026 00:00
Orbit: 52045 x 171589 km, 27.4° (Epoch: 3 February)

Date Brightness Start Highest point End Pass type
(mag) Time Alt. Az. Time Alt. Az. Time Alt. Az.
8 Feb ? 11:28:33 10° E 19:06:04 67° N 01:51:19 10° WNW visible
9 Feb ? 18:00:29 10° ENE 23:42:16 64° N 05:17:31 10° WNW daylight
10 Feb ? 20:11:55 10° ENE 01:50:09 75° N 07:25:37 10° WNW visible
11 Feb ? 22:37:30 10° E 04:37:02 82° S 11:14:53 10° WSW visible
13 Feb ? 14:46:45 10° ENE 21:00:15 62° N 02:58:46 10° WNW visible
14 Feb ? 18:27:54 10° ENE 00:06:28 67° N 05:39:44 10° WNW daylight
15 Feb ? 20:30:32 10° ENE 02:11:04 80° N 07:50:54 10° W visible
